Location: Newark
(41.8083°N, 72.2500°W)
Time: 14:21:18
(UTC+00:00)

deb Explorer IX - Pass Details

Date: 05 December 2021
Orbit: 544 x 1082 km, 38.8° (Epoch: 19 January)

Event Time Altitude Azimuth Distance (km) Brightness Sun altitude
Rises 18:14:55 0° 273° (W) 2,805 ? 22.1°
Reaches altitude 10° 18:17:23 10° 265° (W) 1,857 ? 21.9°
Maximum altitude 18:21:15 37° 198° (SSW) 863 ? 21.6°
Drops below altitude 10° 18:25:00 10° 130° (SE) 1,801 ? 21.3°
Sets 18:27:22 0° 122° (ESE) 2,708 ? 21.1°
